Regional Weather Roundup
Issued by NWS

Home | Current Version | Previous Version | Graphics & Text | Print | Product List | Glossary On
Versions: 1 2 3 4 5 6 7 8 9 10 11 12 13 14 15 16 17 18 19 20 21 22 23 24 25 26 27 28 29 30 31 32 33 34 35 36 37 38 39 40 41 42 43 44 45 46 47 48 49 50
000
ASUS45 KABQ 221901
RWRNM
WEATHER ROUNDUP FOR NEW MEXICO
NATIONAL WEATHER SERVICE ALBUQUERQUE NM
1200 PM MST SAT NOV 22 2014

NOTE: "FAIR" MEANS FEW OR NO CLOUDS BELOW 12,000 FEET AGL WITH NO
       SIGNIFICANT WEATHER OR OBSTRUCTIONS TO VISION.

      THIS PRODUCT IS RELEASED AS TWO VERSIONS.  ONE VERSION NEAR
      THE TOP OF THE HOUR CONTAINING PRELIMINARY DATA FROM ALBUQUERQUE
      AND OTHER STATIONS.  A FINAL VERSION WITH ADDITIONAL DATA IS
      ISSUED ABOUT 10 MINUTES AFTER THE HOUR.

NMZ501-503-504-510>518-222000-
NORTHWEST PLATEAU/NORTHCENTRAL MOUNTAINS

CITY           SKY/WX    TMP DP  RH WIND       PRES   REMARKS
FARMINGTON     SUNNY     47  22  37 W3        30.06F
SANTA FE       SUNNY     50  20  30 VRB5      30.01F
TAOS           SUNNY     43  23  45 S8        30.03F

$$
NMZ402-403-502-505>509-222000-
WESTCENTRAL MOUNTAINS/SOUTHWEST MOUNTAINS

CITY           SKY/WX    TMP DP  RH WIND       PRES   REMARKS
GALLUP         SUNNY     52  19  27 SW15G23   30.09F
SILVER CITY    SUNNY     59  18  20 NW15      30.10S

$$
NMZ407-409-411-412-222000-
SOUTHERN DESERTS

CITY           SKY/WX    TMP DP  RH WIND       PRES   REMARKS
DEMING         SUNNY     60  31  33 W6        30.05F
HOLLOMAN AFB   SUNNY     62  27  26 W12       30.00F
T OR C         SUNNY     57  22  25 E5        30.03F

$$
NMZ519>523-222000-
CENTRAL VALLEYS/CENTRAL HIGHLANDS

CITY           SKY/WX    TMP DP  RH WIND       PRES   REMARKS
ALBUQUERQUE    MOSUNNY   50  21  32 SW8       30.05F
DOUBLE EAGLE   MOSUNNY   52  21  30 W7        30.06F
CLINES CORNERS SUNNY     49  22  34 NW26G33   29.99F
BELEN          FAIR      51  20  30 E3        30.05F
SOCORRO        NOT AVBL

$$
NMZ524>526-539-540-222000-
SOUTHCENTRAL MOUNTAINS

CITY           SKY/WX    TMP DP  RH WIND       PRES   REMARKS
RUIDOSO        SUNNY     54  19  26 NW18G24   30.03F

$$
NMZ527>531-222000-
NORTHEAST HIGHLANDS/NORTHEAST PLAINS

CITY           SKY/WX    TMP DP  RH WIND       PRES   REMARKS
LAS VEGAS      SUNNY     55  15  20 CALM      29.90F
RATON          SUNNY     53  24  32 SW8       29.81F
CLAYTON        SUNNY     65  14  14 SW17G28   29.78F

$$
NMZ532>537-222000-
EASTCENTRAL PLAINS

CITY           SKY/WX    TMP DP  RH WIND       PRES   REMARKS
TUCUMCARI      SUNNY     66  20  17 W20       29.82F
CANNON AFB     SUNNY     63  21  20 W15       29.91F
CLOVIS AIRPORT SUNNY     64  23  20 W18G25    29.88F

$$
NMZ028-029-538-222000-
SOUTHEAST PLAINS

CITY           SKY/WX    TMP DP  RH WIND       PRES   REMARKS
ROSWELL        SUNNY     64  26  23 S3        29.91F
CARLSBAD       SUNNY     69  28  21 NW10      29.90F
HOBBS          SUNNY     66  50  55 S9        29.90F


$$


USA.gov is the U.S. government's official web portal to all federal, state and local government web resources and services.